Wind_Speed
3 4 4 6 9 10 10 9 10 12 12 13 14 15 15 15 16 17 16 16 17 18 18 18 19 19 20 20 20 19 19 18 18 18 18 19 20 19 19 19 20 21 22 22
4 6 8 9 11 10 9 9 12 13 11 12 13 14 14 15 16 17 17 17 19 20 19 19 19 20 19 20 19 19 18 18 19 19 19 19 19 19 19 20 20 21 22 22
6 8 10 9 7 8 9 10 12 13 10 11 14 15 15 14 16 17 17 18 20 20 20 19 19 19 19 19 19 19 19 18 19 19 19 19 19 20 20 20 21 21 22 21
7 9 9 7 6 9 9 10 12 11 11 11 13 14 16 15 15 17 18 19 19 19 20 19 19 19 19 19 18 19 19 19 19 19 19 19 20 20 20 21 21 22 22 23
7 8 8 8 8 10 10 11 12 11 11 11 11 13 15 16 16 19 19 18 19 20 20 20 19 19 19 18 18 19 19 19 19 19 19 20 20 21 21 21 22 22 23 23
7 8 10 11 10 11 11 11 11 10 11 11 11 13 16 15 17 19 20 20 19 19 19 19 19 19 18 18 19 20 19 19 19 19 20 20 20 21 21 21 22 22 22 22
7 8 10 10 10 10 10 10 9 9 11 12 12 13 15 15 18 19 21 21 21 20 19 19 19 18 18 19 19 20 20 19 19 19 19 20 21 21 22 22 22 23 22 23
8 9 11 11 10 10 11 10 11 11 10 10 12 14 15 16 19 20 21 21 21 20 19 20 19 19 19 19 20 21 20 19 19 19 20 20 21 21 22 22 22 22 22 24
8 8 9 11 11 10 11 11 11 12 10 10 11 16 18 18 19 21 21 21 21 20 20 20 20 20 19 19 20 20 20 20 19 19 20 21 21 21 21 21 21 22 23 23
9 9 9 11 10 10 10 11 10 10 9 9 12 16 19 20 21 21 20 20 20 20 19 19 19 20 19 19 19 20 21 21 21 20 21 21 22 21 21 21 22 22 22 22
10 10 10 10 11 11 11 11 11 11 11 11 12 16 18 21 22 21 20 20 20 19 19 19 20 20 20 20 20 20 21 22 22 21 21 21 21 21 21 22 22 22 22 21
11 11 10 11 11 12 12 12 11 11 12 13 15 18 19 21 22 21 21 20 20 19 18 19 20 20 20 20 20 21 21 21 22 22 22 21 21 21 22 22 21 21 20 20
12 12 12 12 12 12 12 13 12 12 13 14 16 18 19 20 19 19 20 19 19 19 19 19 20 21 21 21 21 21 21 22 23 23 22 21 22 22 22 21 20 20 20 20
14 14 13 12 11 12 12 13 13 14 15 15 17 18 20 20 19 19 20 19 19 18 19 19 20 21 22 22 21 21 22 21 22 22 21 20 20 21 21 20 19 19 19 20
17 16 15 15 14 13 14 15 15 16 17 17 18 19 20 19 19 19 19 19 18 19 19 19 20 21 21 21 21 21 21 21 21 21 20 20 20 21 20 19 18 18 18 19
20 19 18 17 16 16 16 16 17 17 18 19 19 20 20 20 19 19 18 18 19 19 19 19 20 20 21 21 21 20 20 20 21 20 19 20 20 20 19 19 18 18 19 19
21 20 20 20 19 19 20 18 18 19 19 19 19 18 18 18 18 18 18 18 19 20 19 19 20 20 20 20 20 20 20 20 20 19 19 20 20 20 19 19 19 19 19 19
23 22 21 20 21 22 21 19 19 20 20 20 20 19 18 17 18 18 18 18 19 19 19 20 20 21 20 20 20 20 20 21 20 19 20 20 20 20 20 20 20 19 19 19
23 23 22 22 22 24 22 20 19 20 21 20 20 19 18 18 18 19 18 18 19 19 19 19 20 20 20 20 20 20 20 21 20 19 19 20 20 20 20 21 20 19 19 20
24 23 23 23 23 24 23 21 20 21 22 21 20 19 19 19 19 19 18 18 19 19 19 19 20 20 20 20 20 20 21 21 20 19 19 20 20 20 21 21 20 20 21 20
24 24 24 24 25 25 23 23 22 22 22 21 20 20 19 19 19 19 19 19 20 19 19 20 20 20 21 21 21 21 21 21 20 20 19 20 20 20 21 21 21 21 21 21
24 24 24 24 24 25 24 24 24 23 23 22 21 20 20 20 20 20 20 20 21 20 19 20 20 21 21 21 21 21 21 20 20 20 20 21 20 20 21 21 21 22 21 21
24 24 24 25 25 26 26 26 25 24 24 23 22 22 21 21 21 21 21 21 21 21 21 21 22 22 21 21 21 21 21 21 21 21 21 21 21 20 21 21 21 21 21 21
26 26 26 26 26 26 27 27 26 26 26 25 24 23 23 22 22 22 22 22 22 22 23 23 23 22 22 21 22 22 21 21 21 22 21 21 21 21 21 22 21 21 22 21
29 28 28 28 28 28 27 27 27 27 26 26 25 25 23 23 22 23 23 23 23 24 24 24 23 22 22 22 22 22 22 22 22 22 22 21 21 21 21 22 21 21 22 22
30 29 29 29 29 29 28 27 28 27 26 26 26 26 26 25 25 25 25 25 25 25 25 24 23 23 23 22 22 22 22 22 22 22 22 22 22 22 21 22 22 22 22 22
Wind_Direction
257 256 256 242 241 248 245 253 259 265 275 286 295 299 307 312 314 316 319 322 321 317 316 317 318 318 316 314 315 313 314 314 313 309 307 301 300 301 300 298 294 293 294 293
251 267 263 258 252 249 251 263 266 265 272 282 295 296 303 311 316 318 322 324 324 324 327 325 322 321 321 319 317 317 316 315 313 310 309 305 302 301 301 300 297 295 294 294
261 257 264 265 256 258 263 263 261 262 271 288 296 303 306 311 313 315 321 325 327 327 326 325 324 323 323 321 321 322 320 317 313 309 307 307 303 302 302 302 299 297 296 294
269 268 274 268 261 259 263 260 266 277 287 287 291 295 302 304 309 315 321 325 326 325 325 325 324 324 325 325 323 324 323 319 315 312 309 307 305 303 301 302 302 300 296 294
267 272 277 272 265 265 264 264 270 276 288 287 290 292 297 303 309 314 318 322 322 324 325 326 325 324 324 324 324 325 324 321 318 315 312 307 304 304 301 301 301 301 299 296
254 264 264 266 265 269 273 273 272 277 285 280 281 288 289 299 306 311 315 318 319 321 323 326 325 324 324 325 325 326 325 321 318 316 313 308 306 306 304 303 303 303 302 300
275 276 276 276 271 272 273 270 277 277 277 276 277 281 283 299 304 308 310 313 316 317 320 325 325 326 325 324 325 325 322 320 319 317 314 312 310 309 308 307 306 305 303 302
262 272 276 277 275 269 271 268 272 275 273 280 280 282 293 301 305 307 309 312 314 318 322 325 325 325 324 325 325 326 326 324 323 321 318 317 314 312 311 310 309 308 307 305
265 262 272 274 276 273 266 262 266 269 272 280 280 285 293 298 307 307 310 314 316 317 322 324 324 324 324 325 326 327 327 326 325 324 322 320 319 316 313 312 311 309 308 307
272 268 260 272 280 283 271 269 267 270 271 276 281 286 293 298 301 304 308 313 316 318 321 322 323 324 325 325 325 325 325 324 323 323 323 322 320 317 313 311 311 311 309 308
259 266 267 273 276 283 277 270 270 269 265 267 275 280 288 293 300 304 309 311 314 318 319 320 322 325 325 324 324 325 324 324 325 323 321 321 320 319 317 314 311 310 311 310
255 260 261 268 272 275 276 273 273 272 271 270 276 284 290 294 297 303 307 307 310 316 318 320 322 325 325 324 324 324 325 326 326 325 323 322 321 320 320 318 315 314 313 311
257 257 264 270 272 272 273 275 273 275 276 277 279 285 290 293 299 301 305 310 313 316 317 319 322 324 324 324 323 324 325 325 324 323 323 322 322 322 321 321 319 318 316 317
259 259 265 266 267 274 276 274 271 273 277 279 278 282 290 295 298 301 305 310 314 315 315 317 319 322 324 325 324 325 327 327 327 327 327 326 325 325 325 325 323 322 320 319
260 261 264 265 262 265 272 276 274 276 278 277 279 281 284 292 295 300 304 308 312 313 313 315 318 321 324 327 328 327 327 329 330 330 330 329 329 328 328 328 326 325 323 321
262 264 264 266 266 264 264 269 274 276 276 278 281 285 290 292 294 298 301 306 309 311 313 317 319 321 324 327 329 330 330 330 331 332 332 331 331 330 329 329 326 324 324 324
265 267 265 266 268 268 267 268 272 276 278 279 281 285 286 288 292 297 301 305 306 309 315 317 317 320 322 325 328 330 331 332 333 332 331 330 330 330 330 330 327 324 325 326
264 266 266 267 267 266 267 268 270 275 278 281 284 285 286 290 293 297 301 304 306 309 314 316 318 319 320 323 326 328 329 330 329 329 329 330 330 330 330 329 327 325 324 325
263 265 266 267 266 270 271 270 270 273 276 278 280 280 283 287 292 296 301 304 307 310 314 316 316 318 318 319 323 326 326 327 326 326 328 330 330 330 328 327 326 325 324 325
263 263 264 264 264 264 270 269 271 272 272 275 276 277 280 284 288 293 299 303 305 308 312 314 315 316 316 318 321 323 324 324 324 324 325 328 328 329 328 327 326 326 325 324
261 262 263 263 264 265 268 266 268 269 272 272 274 276 278 281 285 290 296 299 302 306 309 311 313 315 314 315 318 320 322 323 323 322 323 325 326 327 327 326 327 327 326 325
259 261 262 262 262 263 264 262 263 266 268 268 270 272 275 278 281 286 291 296 299 302 306 309 311 312 311 312 314 316 319 320 320 319 320 322 323 324 325 325 325 325 326 326
255 257 260 263 263 264 263 263 263 264 265 266 268 270 273 277 279 283 288 292 296 300 304 306 309 310 308 309 311 314 316 317 318 317 316 317 318 319 321 323 324 324 324 325
252 253 256 259 261 263 262 263 262 263 266 266 268 271 274 277 280 283 286 289 293 298 301 304 307 308 309 309 308 311 314 315 316 316 314 314 314 316 319 320 321 322 323 323
251 253 255 258 259 260 263 263 263 265 266 265 265 269 273 276 278 281 284 287 291 295 299 301 303 305 306 307 307 308 312 314 316 316 315 314 314 315 318 320 321 322 323 323
253 253 255 256 258 259 261 263 264 262 263 264 267 268 271 275 277 280 281 284 288 292 295 297 299 303 304 305 306 307 310 313 315 314 314 313 313 313 314 316 318 318 319 319
Height
5853 5854 5855 5856 5857 5857 5857 5858 5859 5859 5858 5857 5856 5855 5852 5850 5848 5846 5844 5841 5839 5836 5833 5831 5828 5826 5824 5822 5819 5817 5815 5813 5811 5809 5808 5806 5805 5804 5803 5801 5800 5799 5798 5797
5853 5853 5854 5854 5855 5855 5855 5856 5856 5856 5855 5855 5854 5852 5851 5849 5847 5844 5842 5839 5837 5834 5831 5829 5826 5823 5821 5819 5816 5814 5812 5810 5808 5806 5804 5802 5801 5800 5798 5797 5796 5794 5793 5792
5850 5852 5852 5852 5853 5853 5853 5854 5854 5853 5852 5853 5852 5850 5848 5847 5844 5842 5840 5838 5835 5832 5829 5827 5824 5821 5818 5816 5813 5811 5808 5806 5804 5802 5800 5798 5797 5796 5794 5793 5791 5790 5788 5787
5849 5850 5850 5851 5851 5851 5851 5852 5852 5851 5850 5850 5850 5848 5846 5843 5841 5840 5838 5836 5833 5830 5827 5824 5821 5818 5816 5813 5810 5807 5805 5802 5800 5797 5796 5794 5792 5791 5790 5788 5787 5785 5783 5782
5848 5848 5849 5849 5849 5848 5849 5849 5849 5849 5849 5849 5847 5846 5845 5842 5840 5839 5836 5833 5830 5828 5825 5822 5819 5816 5813 5810 5808 5805 5802 5799 5796 5794 5792 5790 5788 5787 5785 5783 5782 5780 5778 5776
5846 5847 5847 5847 5847 5846 5847 5847 5847 5846 5847 5846 5846 5845 5843 5841 5839 5837 5834 5831 5828 5826 5823 5820 5817 5813 5810 5808 5805 5802 5799 5796 5793 5790 5788 5786 5784 5782 5780 5778 5776 5775 5773 5771
5845 5845 5844 5844 5844 5845 5845 5845 5845 5845 5845 5844 5843 5842 5841 5838 5837 5835 5832 5829 5826 5823 5820 5818 5815 5811 5808 5805 5802 5799 5796 5793 5790 5787 5784 5782 5779 5777 5775 5773 5771 5769 5767 5765
5844 5844 5843 5842 5842 5842 5842 5843 5843 5843 5843 5842 5840 5839 5838 5836 5835 5833 5830 5827 5824 5821 5817 5815 5812 5809 5806 5803 5800 5796 5793 5790 5786 5784 5781 5778 5776 5773 5771 5769 5767 5764 5762 5760
5841 5842 5841 5840 5839 5840 5840 5840 5841 5841 5840 5840 5839 5837 5836 5834 5832 5830 5827 5824 5821 5818 5815 5813 5809 5806 5803 5800 5797 5794 5790 5787 5784 5781 5778 5775 5772 5769 5766 5764 5762 5759 5757 5755
5839 5839 5839 5838 5837 5838 5838 5838 5838 5837 5837 5838 5837 5836 5834 5831 5830 5828 5825 5822 5818 5815 5813 5810 5807 5804 5801 5798 5795 5792 5788 5785 5781 5778 5775 5772 5768 5765 5763 5760 5758 5755 5752 5749
5836 5837 5837 5837 5836 5836 5836 5836 5835 5834 5834 5835 5834 5834 5830 5828 5826 5824 5822 5819 5816 5813 5810 5807 5804 5801 5798 5795 5792 5789 5786 5782 5779 5775 5772 5768 5765 5762 5759 5756 5754 5751 5748 5745
5833 5834 5834 5834 5834 5833 5833 5832 5832 5832 5832 5831 5831 5831 5827 5825 5823 5821 5818 5816 5813 5811 5808 5805 5802 5799 5795 5792 5789 5786 5783 5779 5776 5772 5768 5764 5761 5758 5755 5752 5749 5746 5743 5741
5830 5831 5831 5831 5832 5831 5830 5830 5829 5830 5829 5828 5827 5828 5823 5821 5819 5818 5815 5813 5811 5808 5806 5803 5799 5796 5793 5790 5786 5783 5779 5776 5772 5768 5764 5761 5758 5755 5751 5748 5745 5742 5739 5737
5827 5827 5828 5829 5828 5827 5827 5827 5827 5826 5826 5825 5824 5823 5820 5818 5816 5814 5812 5810 5808 5806 5803 5800 5797 5793 5790 5787 5783 5780 5776 5772 5769 5765 5761 5758 5754 5751 5748 5744 5741 5739 5736 5733
5823 5824 5824 5824 5824 5824 5824 5823 5823 5823 5822 5821 5820 5818 5816 5814 5813 5811 5809 5807 5805 5803 5800 5797 5794 5791 5788 5784 5780 5777 5773 5769 5766 5762 5758 5755 5751 5748 5745 5742 5738 5736 5733 5730
5818 5819 5819 5819 5820 5820 5820 5820 5819 5818 5817 5816 5816 5814 5812 5811 5809 5808 5806 5804 5802 5799 5797 5794 5791 5788 5785 5781 5778 5774 5771 5767 5763 5759 5756 5752 5749 5745 5742 5739 5736 5733 5730 5727
5813 5814 5815 5815 5816 5815 5815 5816 5815 5814 5813 5813 5811 5811 5809 5808 5806 5804 5803 5801 5799 5796 5794 5791 5788 5785 5782 5779 5775 5772 5768 5764 5761 5757 5754 5750 5746 5743 5739 5736 5733 5730 5727 5724
5809 5809 5809 5810 5811 5810 5812 5811 5811 5810 5808 5808 5807 5806 5805 5804 5802 5801 5799 5798 5795 5793 5791 5788 5785 5782 5779 5776 5773 5769 5766 5762 5758 5755 5751 5747 5744 5740 5737 5733 5730 5727 5724 5721
5803 5803 5804 5804 5804 5804 5805 5806 5806 5805 5804 5803 5802 5802 5801 5800 5798 5797 5796 5794 5792 5790 5787 5785 5782 5779 5776 5773 5770 5766 5763 5759 5756 5752 5749 5745 5741 5738 5734 5731 5727 5724 5721 5718
5796 5797 5798 5798 5798 5799 5801 5800 5799 5800 5798 5798 5797 5797 5797 5796 5795 5794 5792 5791 5789 5786 5784 5781 5779 5776 5773 5770 5767 5763 5760 5756 5753 5749 5746 5742 5739 5735 5732 5728 5725 5721 5718 5714
5790 5791 5791 5792 5792 5792 5793 5793 5794 5795 5794 5793 5792 5792 5792 5791 5791 5790 5788 5787 5785 5783 5780 5778 5775 5772 5769 5766 5763 5760 5757 5753 5750 5746 5743 5740 5736 5732 5729 5725 5722 5718 5715 5711
5783 5784 5785 5785 5785 5787 5786 5786 5787 5787 5787 5787 5787 5787 5787 5786 5786 5785 5783 5782 5780 5778 5776 5774 5771 5768 5765 5762 5759 5756 5753 5750 5747 5743 5740 5737 5733 5729 5726 5722 5719 5715 5711 5707
5777 5778 5778 5779 5780 5778 5778 5779 5779 5780 5781 5781 5782 5782 5781 5781 5780 5780 5779 5777 5775 5774 5771 5769 5767 5764 5761 5758 5755 5752 5749 5746 5743 5740 5736 5733 5729 5726 5722 5719 5715 5712 5708 5704
5768 5769 5770 5771 5771 5771 5771 5771 5771 5773 5774 5775 5775 5775 5775 5775 5774 5774 5773 5772 5770 5768 5766 5764 5762 5759 5756 5754 5751 5748 5745 5742 5739 5736 5732 5729 5726 5722 5719 5715 5712 5708 5704 5701
5759 5761 5762 5763 5764 5763 5763 5765 5765 5766 5767 5768 5768 5769 5769 5769 5768 5768 5767 5766 5765 5763 5761 5759 5757 5754 5751 5749 5746 5743 5740 5738 5735 5731 5728 5725 5721 5718 5715 5711 5708 5704 5701 5696
5751 5752 5754 5755 5755 5756 5756 5757 5758 5759 5760 5760 5761 5761 5762 5762 5761 5761 5760 5759 5758 5757 5755 5753 5751 5748 5746 5743 5741 5738 5735 5733 5730 5727 5723 5720 5717 5714 5710 5707 5704 5700 5697 5693